This is the latest recevied weather packets stored in our database for station/object KE0FIN. If no packets are shown the sender has not sent any weather packets the latest 10 day(s).
| Time | Temp. | Humidity | Pressure | Rain* | Wind** | Luminosity | Snow |
|---|---|---|---|---|---|---|---|
| 1777738040 | 15° C | 36% | 1073.8 hPa | 0 mm | - | 40 W/m² | - |
| 1777737739 | 15° C | 34% | 1073.9 hPa | 0 mm | - | 41 W/m² | - |
| 1777737437 | 15.56° C | 35% | 1074.1 hPa | 0 mm | - | 41 W/m² | - |
| 1777737135 | 15.56° C | 34% | 1073.9 hPa | 0 mm | - | 43 W/m² | - |
| 1777736830 | 15.56° C | 34% | 1073.8 hPa | 0 mm | - | 150 W/m² | - |
| 1777736211 | 15.56° C | 35% | 1073.9 hPa | 0 mm | - | 69 W/m² | - |
| 1777735908 | 16.11° C | 32% | 1074.1 hPa | 0 mm | - | 292 W/m² | - |
| 1777735606 | 16.11° C | 35% | 1073.9 hPa | 0 mm | - | 111 W/m² | - |
| 1777735303 | 16.67° C | 34% | 1073.9 hPa | 0 mm | - | 191 W/m² | - |
| 1777735000 | 15.56° C | 35% | 1073.8 hPa | 0 mm | - | 385 W/m² | - |
| 1777734697 | 15.56° C | 34% | 1074.2 hPa | 0 mm | - | 373 W/m² | - |
| 1777734395 | 16.11° C | 35% | 1073.9 hPa | 0 mm | - | 359 W/m² | - |
| 1777734091 | 15.56° C | 37% | 1074.1 hPa | 0 mm | - | 345 W/m² | - |
| 1777733787 | 15.56° C | 35% | 1073.8 hPa | 0 mm | - | 223 W/m² | - |
| 1777733485 | 15° C | 38% | 1074.1 hPa | 0 mm | - | 317 W/m² | - |
| 1777733180 | 15° C | 39% | 1074.1 hPa | 0 mm | - | 304 W/m² | - |
| 1777732877 | 15° C | 39% | 1074.1 hPa | 0 mm | - | 291 W/m² | - |
| 1777732574 | 15° C | 37% | 1074.2 hPa | 0 mm | - | 155 W/m² | - |
| 1777732272 | 15° C | 39% | 1074.2 hPa | 0 mm | - | 262 W/m² | - |
| 1777731968 | 14.44° C | 40% | 1073.9 hPa | 0 mm | - | 249 W/m² | - |
| 1777731665 | 14.44° C | 41% | 1073.9 hPa | 0 mm | - | 237 W/m² | - |
| 1777731363 | 13.89° C | 41% | 1073.8 hPa | 0 mm | - | 244 W/m² | - |
| 1777731060 | 13.89° C | 41% | 1073.9 hPa | 0 mm | - | 223 W/m² | - |
| 1777730759 | 13.33° C | 44% | 1073.9 hPa | 0 mm | - | 199 W/m² | - |
| 1777730455 | 12.22° C | 45% | 1073.7 hPa | 0 mm | - | 189 W/m² | - |
* Rain latest hour (hover to see other rain measurements)
** Current wind speed in m/s (hover to see current wind gust speed)